Weather Roundup
Issued by NWS

Home | Current Version | Previous Version | Text Only | Print | Product List | Glossary On
Versions: 1 2 3 4 5 6 7 8 9 10 11 12 13 14 15 16 17 18 19 20 21 22 23 24 25 26 27 28 29 30 31 32 33 34 35 36 37 38 39 40 41 42 43 44 45 46 47 48 49 50
000
NZUS93 KARX 182210
HRRWXR

CURRENT HOURLY OBSERVATIONS ACROSS
MUCH OF THE UPPER MISSISSIPPI VALLEY
NATIONAL WEATHER SERVICE LA CROSSE WI
400 PM CST THU DEC 18 2014


...SOUTHEAST MINNESOTA...


CITY           SKY/WX    TMP DP  RH WIND       PRES   REMARKS
ROCHESTER      CLOUDY    21  15  78 CALM      30.24R
ROCHESTER/MAYO CLOUDY    21  14  72 SE5       30.24S WCI  15
WINONA         CLOUDY    27  21  80 CALM      30.28R
AUSTIN         CLOUDY    21  16  79 CALM      30.23S
ALBERT LEA     PTCLDY    21  18  86 CALM      30.23R
DODGE CENTER   CLOUDY    21  18  86 E5        30.23S WCI  15
PRESTON        CLOUDY    21  16  79 CALM      30.24R
OWATONNA       MOCLDY    21  14  73 CALM      30.24R
FARIBAULT      CLOUDY    21  16  79 E3        30.25S
$$

...ELSEWHERE IN MINNESOTA...


CITY           SKY/WX    TMP DP  RH WIND       PRES   REMARKS
MINNEAPOLIS    CLOUDY    21  15  78 SE3       30.27R
INTNL FALLS    CLOUDY    20  15  81 SE7       30.23S WCI  11
DULUTH         CLOUDY    24  17  74 E7        30.21S WCI  16
RED WING       LGT SNOW  25  18  74 CALM      30.26S
REDWOOD FALLS  CLOUDY    21  15  78 SE7       30.23R WCI  12
MANKATO        PTCLDY    21  12  68 E3        30.25R
WORTHINGTON    CLOUDY    25  21  86 S5        30.18S WCI  19
FAIRMONT       CLOUDY    23  16  74 SE5       30.22S WCI  17
$$

...SOUTHWEST WISCONSIN...


CITY           SKY/WX    TMP DP  RH WIND       PRES   REMARKS
LA CROSSE      CLOUDY    26  18  71 W3        30.27R
PRAIRIE DU CHI CLOUDY    27  17  64 N3        30.26S
BOSCOBEL       CLOUDY    27  17  66 S3        30.27R
LONE ROCK      CLOUDY    29  19  66 SE3       30.26
PLATTEVILLE    CLOUDY    26  20  77 CALM      30.24S
FORT MC COY    CLOUDY    25  19  78 CALM      30.26S
CAMP DOUGLAS   CLOUDY    25  23  93 N1        30.24S
VIROQUA        CLOUDY    23  20  86 CALM      30.23R
WIS DELLS      CLOUDY    25  19  78 CALM      30.23S
$$

...ELSEWHERE IN WISCONSIN...


CITY           SKY/WX    TMP DP  RH WIND       PRES   REMARKS
MILWAUKEE      CLOUDY    29  23  78 NW7       30.23R WCI  22
MADISON        CLOUDY    27  21  78 NW5       30.23R WCI  22
GREEN BAY      CLEAR     27  20  75 S3        30.24S
EAU CLAIRE     CLOUDY    24  18  77 N3        30.25S
BLACK RVR FLS  CLOUDY    26  20  79 CALM      30.25S
MEDFORD        CLOUDY    22  18  83 CALM      30.21S
WAUSAU         PTCLDY    24  17  74 N3        30.21S
WIS RAPIDS     CLOUDY    25  19  78 NW5       30.24S WCI  19
MARSHFIELD     CLOUDY    25  19  78 CALM      30.22S
RICE LAKE      CLOUDY    23  20  87 CALM      30.26S
$$

...NORTHEAST IOWA...


CITY           SKY/WX    TMP DP  RH WIND       PRES   REMARKS
DECORAH        CLOUDY    23  18  80 N5        30.23S WCI  17
MASON CITY     CLOUDY    23  17  78 CALM      30.24S
CHARLES CITY   CLOUDY    23  18  80 CALM      30.24F
OELWEIN        CLOUDY    23  18  80 N6        30.25R WCI  16
$$

...ELSEWHERE IN IOWA...


CITY           SKY/WX    TMP DP  RH WIND       PRES   REMARKS
DES MOINES     CLOUDY    30  21  69 E3        30.24R
IOWA CITY      CLOUDY    26  18  71 W5        30.28R WCI  20
FORT DODGE     CLOUDY    27  19  74 E5        30.23S WCI  21
$$

...NORTHERN ILLINOIS...


CITY           SKY/WX    TMP DP  RH WIND       PRES   REMARKS
CHICAGO-OHARE  CLOUDY    28  19  69 W5        30.22S WCI  23
CHICAGO-MIDWAY CLOUDY    29  19  66 SW6       30.23S WCI  23
MOLINE         MOCLDY    29  17  61 NW6       30.25S WCI  23
ROCKFORD       CLOUDY    26  16  65 N7        30.26R WCI  18
PEORIA         PTCLDY    29  18  63 NE5       30.25R WCI  24
$$

NOTE: "FAIR" INDICATES FEW OR NO CLOUDS BELOW 12,000 FEET WITH NO
SIGNIFICANT WEATHER AND/OR OBSTRUCTIONS TO VISIBILITY. WIND
SPEEDS ARE IN MILES-PER-HOUR.



USA.gov is the U.S. government's official web portal to all federal, state and local government web resources and services.